FENGYUN 1C DEB

Satellite information

Favourite Embed

Satellite Type and Status

DEBRISIN ORBIT

Key statistics

Satellite FENGYUN 1C DEB at a glance.

Uptime

9555

Days in orbit

Revolutions

≈ 14.2

Per day

Orbit

SSO

Sun Synchronous Orbit

Inclination

98.9

Latest

Satellite identification and parameters

Extended collection of information and parameters for FENGYUN 1C DEB.

Object identification

Identified? True

Debris? True

Object name: FENGYUN 1C DEB

International designator: 1999-025BCV

Object number (NORAD): 31003

Object ID (CCSDS): 31003

Country: PEOPLES REPUBLIC OF CHINA (PRC)

Current information (Y/N): Y

RCS size: SMALL

Orbital parameters

Period: 101.163 minutes

Inclination: 98.8513 deg

SMA: 7191.84 km

Apoapsis: 841.897 km

Periapsis: 785.513 km

RAAN: 262.9457 deg

Eccentricy: 0.00392

Argument of periapsis: 316.0543 deg

Mean anomaly: 43.7519 deg

Mean motion: 14.23451623 rev/day

Mean motion (dot): 0.00001929 rev/day2

B* drag term: 0.00086219 1/REarth

Two-line elements (TLE)

Creation date: July 6, 2025, 6:05 p.m.

Reference frame: TEME

Reference center: EARTH

Epoch: July 6, 2025, 3:45 a.m. UTC

TLE line 0: 0 FENGYUN 1C DEB

TLE line 1: 1 31003U 99025BCV 25187.15670119 .00001929 00000-0 86219-3 0 9995

TLE line 2: 2 31003 98.8513 262.9457 0039200 316.0543 43.7519 14.23451623942380

Live tracking on map

Real-time ground track for satellite FENGYUN 1C DEB.

In-orbit conjunctions

A list of the most updated potential collisions computed for object FENGYUN 1C DEB.

Target Orbit TCA Probability of collision Miss distance Type
THOR BURNER 2 R/B SSO 2025-06-24 10:18:38 0.0001068352 402.0 (m) ROCKET BODY
THOR AGENA D R/B SSO 2025-01-13 12:36:10 0.000145332 239.0 (m) ROCKET BODY
CZ-6A DEB SSO 2024-09-26 10:11:41 0.0005518818 41.0 (m) DEBRIS

Associated space launch

Chinese polar orbiting meteorological satellite

FENGYUN 1C DEB was lifted into orbit during the mission ‘Long March 4B | Feng Yun 1C’, on board a Long March 4B space rocket.

The launch took place on May 10, 1999, 1:33 a.m. from Launch Complex 7.

For more information about the launch, click the button.

Launch to space Long March 4B | Feng Yun 1C
Long March 4B | Feng Yun 1C

Agency: N/A

Status: Launch Successful

Launch date: May 10, 1999, 1:33 a.m. UTC

Rocket: Long March 4B

Launch pad: Launch Complex 7

Location: Taiyuan Satellite Launch Center, People's Republic of China

...

Latest news about this satellite

There are no fresh news available about this satellite. Check back as we update our databases every day.


Newsletter sign-up

Weekly statistics, charts and insights to help you stay on top of the space industry.